Tracking 35331 objects as of 14-Sep-2026
HD Live streaming from Space Station
objects crossing your sky now

WILDFIRE 6

Track WILDFIRE 6 now!
10-day predictions


NORAD ID: 57763
Int'l Code: 2023-133H
Launch date: September 2, 2023
Source: United States (US)
Launch site: AIR FORCE WESTERN TEST RANGE (AFWTR)
Your satellite tracking list
Your tracking list is empty




NASA's NSSDC Master Catalog

Two Line Element Set (TLE):
1 57763U 23133G   26257.07581368  .00000054  00000-0  37106-4 0  9990
2 57763  80.9919 281.7434 0007285 133.9097 226.2663 13.85680865153320
Source of the keplerian elements: AFSPC